Live-Position
3D-Globus wird geladen...
Über Starlink 5383
Group: 3 satellites
Beschreibung wird geladen...
Nächste Überflüge
Passes for default location (London). Set your location on the main map for personalized predictions.
Höhenverlauf
Loading altitude history...
No altitude history available
Zweizeiliger Elementsatz
1 54827U 22177H 26125.59037597 -.00000229 00000-0 12182-5 0 9999
2 54827 43.0021 174.8864 0001769 289.1649 70.9011 15.27571565185622
Epoch: 5. Mai 2026 •
Age: 25 hours
Aktueller Status
Höhe 482.3 km
Geschwindigkeit 7.63 km/s
Subsatellitenpunkt 0.29°N,
75.6°E
Startdatum 28. Dez. 2022
Alter 3.3 years
Typ internet
Startgruppe
Falcon 9 •
Group 5-1 •
46 satellites
Starlink 5382
54820
Starlink 5385 54821
Starlink 5101 54822
Starlink 5106 54823
Starlink 4643 54824
Starlink 5107 54826
Starlink 5381 54828
Starlink 5394 54830
Starlink 5395 54831
Starlink 5386 54834
Starlink 5389 54835
Starlink 5384 54836
Starlink 5369 54837
Starlink 5372 54838
Starlink 5368 54840
Starlink 4659 54841
Starlink 5387 54842
Starlink 5304 54843
Starlink 5388 54844
Starlink 5082 54845
...and 25 more
Technische Details
Klassifizierung Payload
Masse 305.00 kg
Trockenmasse 290.00 kg
Gesamtmasse 305.00 kg
Länge 0.20 m
Durchmesser 2.80 m
Spannweite 9.00 m
Form Box + pan
Hersteller SPXS
Bus-Typ Starlink
Phasenstatus In Orbit
Besitzer/Staat SPXS/US
Most Searched
Loading...